Time,TemperatureF,DewpointF,PressureIn,WindDirection,WindDirectionDegrees,WindSpeedMPH,WindSpeedGustMPH,Humidity,HourlyPrecipIn,Conditions,Clouds,dailyrainin,SoftwareType,DateUTC
2013-03-11 00:00:00,49.6,44.9,30.24,ESE,111,1.0,0.0,83,0.00,,,0.00,WeatherCatV1.15B25,2013-03-11 07:00:00,
2013-03-11 00:03:00,44.1,41.1,30.60,ENE,67,0.0,0.0,89,0.00,,,0.00,LWC V2.11 B50,2013-03-11 07:03:00,
2013-03-11 00:05:00,49.6,44.9,30.24,ESE,111,1.0,0.0,83,0.00,,,0.00,WeatherCatV1.15B25,2013-03-11 07:05:00,
2013-03-11 00:08:00,44.1,41.1,30.60,ENE,67,0.0,0.0,89,0.00,,,0.00,LWC V2.11 B50,2013-03-11 07:08:00,
2013-03-11 00:10:00,49.6,44.9,30.24,ESE,111,1.0,0.0,83,0.00,,,0.00,WeatherCatV1.15B25,2013-03-11 07:10:00,
2013-03-11 00:13:00,44.2,41.2,30.60,ENE,67,0.0,0.0,89,0.00,,,0.00,LWC V2.11 B50,2013-03-11 07:13:00,
2013-03-11 00:15:00,49.6,44.9,30.24,ESE,111,1.0,0.0,83,0.00,,,0.00,WeatherCatV1.15B25,2013-03-11 07:15:00,
2013-03-11 00:18:00,44.2,41.2,30.60,ENE,67,0.0,0.0,89,0.00,,,0.00,LWC V2.11 B50,2013-03-11 07:18:00,
2013-03-11 00:20:00,49.6,44.9,30.24,ESE,111,1.0,0.0,83,0.00,,,0.00,WeatherCatV1.15B25,2013-03-11 07:20:00,
2013-03-11 00:24:00,44.2,41.2,30.61,ENE,67,0.0,0.0,89,0.00,,,0.00,LWC V2.11 B50,2013-03-11 07:24:00,
2013-03-11 00:25:00,49.6,44.9,30.24,ESE,111,1.0,0.0,83,0.00,,,0.00,WeatherCatV1.15B25,2013-03-11 07:25:00,
2013-03-11 00:29:00,44.1,41.1,30.61,ENE,67,0.0,0.0,89,0.00,,,0.00,LWC V2.11 B50,2013-03-11 07:29:00,
2013-03-11 00:30:00,49.6,44.9,30.24,ESE,111,1.0,0.0,83,0.00,,,0.00,WeatherCatV1.15B25,2013-03-11 07:30:00,
2013-03-11 00:34:00,44.2,41.2,30.61,ENE,67,0.0,0.0,89,0.00,,,0.00,LWC V2.11 B50,2013-03-11 07:34:00,
2013-03-11 00:35:00,49.6,44.9,30.24,ESE,111,1.0,0.0,83,0.00,,,0.00,WeatherCatV1.15B25,2013-03-11 07:35:00,
2013-03-11 00:39:00,44.1,41.1,30.60,ENE,67,0.0,0.0,89,0.00,,,0.00,LWC V2.11 B50,2013-03-11 07:39:00,
2013-03-11 00:40:00,49.6,44.9,30.24,ESE,111,1.0,0.0,83,0.00,,,0.00,WeatherCatV1.15B25,2013-03-11 07:40:00,
2013-03-11 00:44:00,44.2,41.2,30.60,NE,45,0.0,0.0,89,0.00,,,0.00,LWC V2.11 B50,2013-03-11 07:44:00,
2013-03-11 00:45:00,49.6,44.9,30.24,ESE,111,1.0,0.0,83,0.00,,,0.00,WeatherCatV1.15B25,2013-03-11 07:45:00,
2013-03-11 00:49:00,44.1,41.1,30.61,NE,45,0.0,0.0,89,0.00,,,0.00,LWC V2.11 B50,2013-03-11 07:49:00,
2013-03-11 00:50:00,49.6,44.9,30.24,ESE,111,1.0,0.0,83,0.00,,,0.00,WeatherCatV1.15B25,2013-03-11 07:50:00,
2013-03-11 00:54:00,44.1,41.1,30.60,NE,45,0.0,0.0,89,0.00,,,0.00,LWC V2.11 B50,2013-03-11 07:54:00,
2013-03-11 00:55:00,49.6,44.9,30.24,ESE,111,1.0,0.0,83,0.00,,,0.00,WeatherCatV1.15B25,2013-03-11 07:55:00,
2013-03-11 00:59:00,44.2,41.2,30.61,NE,45,0.0,0.0,89,0.00,,,0.00,LWC V2.11 B50,2013-03-11 07:59:00,
2013-03-11 01:00:00,49.6,44.9,30.24,ESE,111,1.0,0.0,83,0.00,,,0.00,WeatherCatV1.15B25,2013-03-11 08:00:00,
2013-03-11 01:04:00,44.1,41.1,30.61,NE,45,0.0,0.0,89,0.00,,,0.00,LWC V2.11 B50,2013-03-11 08:04:00,
2013-03-11 01:05:00,49.6,44.9,30.24,ESE,111,1.0,0.0,83,0.00,,,0.00,WeatherCatV1.15B25,2013-03-11 08:05:00,
2013-03-11 01:09:00,44.1,41.1,30.60,ENE,67,0.0,0.0,89,0.00,,,0.00,LWC V2.11 B50,2013-03-11 08:09:00,
2013-03-11 01:10:00,49.6,44.9,30.24,ESE,111,1.0,0.0,83,0.00,,,0.00,WeatherCatV1.15B25,2013-03-11 08:10:00,
2013-03-11 01:14:00,44.2,41.2,30.61,NE,45,0.0,0.0,89,0.00,,,0.00,LWC V2.11 B50,2013-03-11 08:14:00,
2013-03-11 01:15:00,49.6,44.9,30.24,ESE,111,1.0,0.0,83,0.00,,,0.00,WeatherCatV1.15B25,2013-03-11 08:15:00,
2013-03-11 01:19:00,44.1,41.4,30.60,ENE,67,0.0,0.0,90,0.00,,,0.00,LWC V2.11 B50,2013-03-11 08:19:00,
2013-03-11 01:20:00,49.6,44.9,30.24,ESE,111,1.0,0.0,83,0.00,,,0.00,WeatherCatV1.15B25,2013-03-11 08:20:00,
2013-03-11 01:24:00,44.2,41.2,30.60,ENE,67,0.0,0.0,89,0.00,,,0.00,LWC V2.11 B50,2013-03-11 08:24:00,
2013-03-11 01:25:00,49.6,44.9,30.24,ESE,111,1.0,0.0,83,0.00,,,0.00,WeatherCatV1.15B25,2013-03-11 08:25:00,
2013-03-11 01:29:00,44.2,41.4,30.60,ENE,67,0.0,0.0,90,0.00,,,0.00,LWC V2.11 B50,2013-03-11 08:29:00,
2013-03-11 01:30:00,49.6,44.9,30.24,ESE,111,1.0,0.0,83,0.00,,,0.00,WeatherCatV1.15B25,2013-03-11 08:30:00,
2013-03-11 01:34:00,44.2,41.5,30.61,ENE,67,0.0,0.0,90,0.00,,,0.00,LWC V2.11 B50,2013-03-11 08:34:00,
2013-03-11 01:35:00,49.6,44.9,30.24,ESE,111,1.0,0.0,83,0.00,,,0.00,WeatherCatV1.15B25,2013-03-11 08:35:00,
2013-03-11 01:40:00,44.2,41.5,30.60,ENE,67,0.0,0.0,90,0.00,,,0.00,LWC V2.11 B50,2013-03-11 08:40:00,
2013-03-11 01:45:00,44.2,41.5,30.60,ENE,67,0.0,0.0,90,0.00,,,0.00,LWC V2.11 B50,2013-03-11 08:45:00,
2013-03-11 01:50:00,44.2,41.5,30.61,ENE,67,0.0,0.0,90,0.00,,,0.00,LWC V2.11 B50,2013-03-11 08:50:00,
2013-03-11 01:55:00,44.1,41.4,30.61,ENE,67,0.0,0.0,90,0.00,,,0.00,LWC V2.11 B50,2013-03-11 08:55:00,
2013-03-11 02:00:00,44.2,41.5,30.61,ENE,67,0.0,0.0,90,0.00,,,0.00,LWC V2.11 B50,2013-03-11 09:00:00,
2013-03-11 02:05:00,44.2,41.5,30.61,ENE,67,0.0,0.0,90,0.00,,,0.00,LWC V2.11 B50,2013-03-11 09:05:00,
2013-03-11 02:10:00,44.2,41.4,30.61,ENE,67,0.0,0.0,90,0.00,,,0.00,LWC V2.11 B50,2013-03-11 09:10:00,
2013-03-11 02:15:00,44.1,41.4,30.61,ENE,67,0.0,0.0,90,0.00,,,0.00,LWC V2.11 B50,2013-03-11 09:15:00,
2013-03-11 02:20:00,44.2,41.5,30.61,ENE,67,0.0,0.0,90,0.00,,,0.00,LWC V2.11 B50,2013-03-11 09:20:00,
2013-03-11 02:25:00,44.2,41.5,30.61,ENE,67,0.0,0.0,90,0.00,,,0.00,LWC V2.11 B50,2013-03-11 09:25:00,
2013-03-11 02:30:00,44.2,41.5,30.61,ENE,67,0.0,0.0,90,0.00,,,0.00,LWC V2.11 B50,2013-03-11 09:30:00,
2013-03-11 02:35:00,44.2,41.5,30.61,ENE,67,0.0,0.0,90,0.00,,,0.00,LWC V2.11 B50,2013-03-11 09:35:00,
2013-03-11 02:40:00,44.2,41.5,30.61,ENE,67,0.0,0.0,90,0.00,,,0.00,LWC V2.11 B50,2013-03-11 09:40:00,
2013-03-11 02:45:00,44.1,41.4,30.62,ENE,67,0.0,0.0,90,0.00,,,0.00,LWC V2.11 B50,2013-03-11 09:45:00,
2013-03-11 02:50:00,49.6,44.9,30.24,ESE,111,1.0,0.0,83,0.00,,,0.00,WeatherCatV1.15B25,2013-03-11 09:50:00,
2013-03-11 02:51:00,44.2,41.5,30.61,ENE,67,0.0,0.0,90,0.00,,,0.00,LWC V2.11 B50,2013-03-11 09:51:00,
2013-03-11 02:55:00,49.6,44.9,30.24,ESE,111,1.0,0.0,83,0.00,,,0.00,WeatherCatV1.15B25,2013-03-11 09:55:00,
2013-03-11 02:56:00,44.2,41.5,30.61,ENE,67,0.0,0.0,90,0.00,,,0.00,LWC V2.11 B50,2013-03-11 09:56:00,
2013-03-11 03:00:00,49.6,44.9,30.24,ESE,111,1.0,0.0,83,0.00,,,0.00,WeatherCatV1.15B25,2013-03-11 10:00:00,
2013-03-11 03:01:00,44.2,41.5,30.62,ENE,67,0.0,0.0,90,0.00,,,0.00,LWC V2.11 B50,2013-03-11 10:01:00,
2013-03-11 03:05:00,49.6,44.9,30.24,ESE,111,1.0,0.0,83,0.00,,,0.00,WeatherCatV1.15B25,2013-03-11 10:05:00,
2013-03-11 03:06:00,44.1,41.4,30.62,ESE,112,0.0,0.0,90,0.00,,,0.00,LWC V2.11 B50,2013-03-11 10:06:00,
2013-03-11 03:10:00,49.6,44.9,30.24,ESE,111,1.0,0.0,83,0.00,,,0.00,WeatherCatV1.15B25,2013-03-11 10:10:00,
2013-03-11 03:11:00,44.1,41.4,30.61,East,90,0.0,0.0,90,0.00,,,0.00,LWC V2.11 B50,2013-03-11 10:11:00,
2013-03-11 03:15:00,49.6,44.9,30.24,ESE,111,1.0,0.0,83,0.00,,,0.00,WeatherCatV1.15B25,2013-03-11 10:15:00,
2013-03-11 03:16:00,44.1,41.4,30.61,East,90,0.0,0.0,90,0.00,,,0.00,LWC V2.11 B50,2013-03-11 10:16:00,
2013-03-11 03:20:00,49.6,44.9,30.24,ESE,111,1.0,0.0,83,0.00,,,0.00,WeatherCatV1.15B25,2013-03-11 10:20:00,
2013-03-11 03:21:00,44.1,41.4,30.61,East,90,0.0,0.0,90,0.00,,,0.00,LWC V2.11 B50,2013-03-11 10:21:00,
2013-03-11 03:25:00,49.6,44.9,30.24,ESE,111,1.0,0.0,83,0.00,,,0.00,WeatherCatV1.15B25,2013-03-11 10:25:00,
2013-03-11 03:26:00,44.1,41.4,30.61,ESE,112,0.0,0.0,90,0.00,,,0.00,LWC V2.11 B50,2013-03-11 10:26:00,
2013-03-11 03:30:00,49.6,44.9,30.24,ESE,111,1.0,0.0,83,0.00,,,0.00,WeatherCatV1.15B25,2013-03-11 10:30:00,
2013-03-11 03:31:00,44.1,41.4,30.61,ENE,67,0.0,0.0,90,0.00,,,0.00,LWC V2.11 B50,2013-03-11 10:31:00,
2013-03-11 03:35:00,49.6,44.9,30.24,ESE,111,1.0,0.0,83,0.00,,,0.00,WeatherCatV1.15B25,2013-03-11 10:35:00,
2013-03-11 03:36:00,44.1,41.4,30.61,ENE,67,0.0,0.0,90,0.00,,,0.00,LWC V2.11 B50,2013-03-11 10:36:00,
2013-03-11 03:40:00,49.6,44.9,30.24,ESE,111,1.0,0.0,83,0.00,,,0.00,WeatherCatV1.15B25,2013-03-11 10:40:00,
2013-03-11 03:41:00,43.9,41.2,30.61,ENE,67,0.0,0.0,90,0.00,,,0.00,LWC V2.11 B50,2013-03-11 10:41:00,
2013-03-11 03:45:00,49.6,44.9,30.24,ESE,111,1.0,0.0,83,0.00,,,0.00,WeatherCatV1.15B25,2013-03-11 10:45:00,
2013-03-11 03:46:00,44.1,41.4,30.61,ENE,67,0.0,0.0,90,0.00,,,0.00,LWC V2.11 B50,2013-03-11 10:46:00,
2013-03-11 03:50:00,49.6,44.9,30.24,ESE,111,1.0,0.0,83,0.00,,,0.00,WeatherCatV1.15B25,2013-03-11 10:50:00,
2013-03-11 03:51:00,43.9,41.2,30.61,ENE,67,0.0,0.0,90,0.00,,,0.00,LWC V2.11 B50,2013-03-11 10:51:00,
2013-03-11 03:55:00,49.6,44.9,30.24,ESE,111,1.0,0.0,83,0.00,,,0.00,WeatherCatV1.15B25,2013-03-11 10:55:00,
2013-03-11 03:56:00,43.9,41.2,30.60,ENE,67,0.0,0.0,90,0.00,,,0.00,LWC V2.11 B50,2013-03-11 10:56:00,
2013-03-11 04:00:00,49.6,44.9,30.24,ESE,111,1.0,0.0,83,0.00,,,0.00,WeatherCatV1.15B25,2013-03-11 11:00:00,
2013-03-11 04:02:00,43.9,41.2,30.60,NE,45,0.0,0.0,90,0.00,,,0.00,LWC V2.11 B50,2013-03-11 11:02:00,
2013-03-11 04:05:00,49.6,44.9,30.24,ESE,111,1.0,0.0,83,0.00,,,0.00,WeatherCatV1.15B25,2013-03-11 11:05:00,
2013-03-11 04:07:00,43.9,41.2,30.60,East,90,0.0,0.0,90,0.00,,,0.00,LWC V2.11 B50,2013-03-11 11:07:00,
2013-03-11 04:10:00,49.6,44.9,30.24,ESE,111,1.0,0.0,83,0.00,,,0.00,WeatherCatV1.15B25,2013-03-11 11:10:00,
2013-03-11 04:12:00,43.9,41.2,30.61,East,90,0.0,0.0,90,0.00,,,0.00,LWC V2.11 B50,2013-03-11 11:12:00,
2013-03-11 04:15:00,49.6,44.9,30.24,ESE,111,1.0,0.0,83,0.00,,,0.00,WeatherCatV1.15B25,2013-03-11 11:15:00,
2013-03-11 04:17:00,43.9,41.2,30.60,East,90,0.0,0.0,90,0.00,,,0.00,LWC V2.11 B50,2013-03-11 11:17:00,
2013-03-11 04:20:00,49.6,44.9,30.24,ESE,111,1.0,0.0,83,0.00,,,0.00,WeatherCatV1.15B25,2013-03-11 11:20:00,
2013-03-11 04:22:00,43.9,41.2,30.60,East,90,0.0,0.0,90,0.00,,,0.00,LWC V2.11 B50,2013-03-11 11:22:00,
2013-03-11 04:25:00,49.6,44.9,30.24,ESE,111,1.0,0.0,83,0.00,,,0.00,WeatherCatV1.15B25,2013-03-11 11:25:00,
2013-03-11 04:27:00,43.9,41.2,30.60,East,90,0.0,0.0,90,0.00,,,0.00,LWC V2.11 B50,2013-03-11 11:27:00,
2013-03-11 04:30:00,49.6,44.9,30.24,ESE,111,1.0,0.0,83,0.00,,,0.00,WeatherCatV1.15B25,2013-03-11 11:30:00,
2013-03-11 04:32:00,43.9,41.2,30.60,NE,45,0.0,0.0,90,0.00,,,0.00,LWC V2.11 B50,2013-03-11 11:32:00,
2013-03-11 04:35:00,49.6,44.9,30.24,ESE,111,1.0,0.0,83,0.00,,,0.00,WeatherCatV1.15B25,2013-03-11 11:35:00,
2013-03-11 04:37:00,43.9,41.2,30.60,NE,45,0.0,0.0,90,0.00,,,0.00,LWC V2.11 B50,2013-03-11 11:37:00,
2013-03-11 04:40:00,49.6,44.9,30.24,ESE,111,1.0,0.0,83,0.00,,,0.00,WeatherCatV1.15B25,2013-03-11 11:40:00,
2013-03-11 04:42:00,43.9,41.2,30.60,NE,45,0.0,0.0,90,0.00,,,0.00,LWC V2.11 B50,2013-03-11 11:42:00,
2013-03-11 04:45:00,49.6,44.9,30.24,ESE,111,1.0,0.0,83,0.00,,,0.00,WeatherCatV1.15B25,2013-03-11 11:45:00,
2013-03-11 04:47:00,43.9,41.2,30.59,NE,45,0.0,0.0,90,0.00,,,0.00,LWC V2.11 B50,2013-03-11 11:47:00,
2013-03-11 04:50:00,49.6,44.9,30.24,ESE,111,1.0,0.0,83,0.00,,,0.00,WeatherCatV1.15B25,2013-03-11 11:50:00,
2013-03-11 04:52:00,43.9,41.2,30.60,NE,45,0.0,0.0,90,0.00,,,0.00,LWC V2.11 B50,2013-03-11 11:52:00,
2013-03-11 04:55:00,49.6,44.9,30.24,ESE,111,1.0,0.0,83,0.00,,,0.00,WeatherCatV1.15B25,2013-03-11 11:55:00,
2013-03-11 04:57:00,43.9,41.2,30.60,NE,45,0.0,0.0,90,0.00,,,0.00,LWC V2.11 B50,2013-03-11 11:57:00,
2013-03-11 05:00:00,49.6,44.9,30.24,ESE,111,1.0,0.0,83,0.00,,,0.00,WeatherCatV1.15B25,2013-03-11 12:00:00,
2013-03-11 05:02:00,43.9,41.2,30.60,NE,45,0.0,0.0,90,0.00,,,0.00,LWC V2.11 B50,2013-03-11 12:02:00,
2013-03-11 05:05:00,49.6,44.9,30.24,ESE,111,1.0,0.0,83,0.00,,,0.00,WeatherCatV1.15B25,2013-03-11 12:05:00,
2013-03-11 05:07:00,43.9,41.2,30.60,NE,45,0.0,0.0,90,0.00,,,0.00,LWC V2.11 B50,2013-03-11 12:07:00,
2013-03-11 05:10:00,49.6,44.9,30.24,ESE,111,1.0,0.0,83,0.00,,,0.00,WeatherCatV1.15B25,2013-03-11 12:10:00,
2013-03-11 05:13:00,43.9,41.2,30.59,NE,45,0.0,0.0,90,0.00,,,0.00,LWC V2.11 B50,2013-03-11 12:13:00,
2013-03-11 05:15:00,49.6,44.9,30.24,ESE,111,1.0,0.0,83,0.00,,,0.00,WeatherCatV1.15B25,2013-03-11 12:15:00,
2013-03-11 05:18:00,43.9,41.2,30.60,NE,45,0.0,0.0,90,0.00,,,0.00,LWC V2.11 B50,2013-03-11 12:18:00,
2013-03-11 05:20:00,49.6,44.9,30.24,ESE,111,1.0,0.0,83,0.00,,,0.00,WeatherCatV1.15B25,2013-03-11 12:20:00,
2013-03-11 05:23:00,43.9,41.2,30.60,ENE,67,0.0,0.0,90,0.00,,,0.00,LWC V2.11 B50,2013-03-11 12:23:00,
2013-03-11 05:25:00,49.6,44.9,30.24,ESE,111,1.0,0.0,83,0.00,,,0.00,WeatherCatV1.15B25,2013-03-11 12:25:00,
2013-03-11 05:28:00,43.9,41.2,30.60,ENE,67,0.0,0.0,90,0.00,,,0.00,LWC V2.11 B50,2013-03-11 12:28:00,
2013-03-11 05:30:00,49.6,44.9,30.24,ESE,111,1.0,0.0,83,0.00,,,0.00,WeatherCatV1.15B25,2013-03-11 12:30:00,
2013-03-11 05:33:00,43.9,41.2,30.59,ENE,67,0.0,0.0,90,0.00,,,0.00,LWC V2.11 B50,2013-03-11 12:33:00,
2013-03-11 05:35:00,49.6,44.9,30.24,ESE,110,1.0,0.0,83,0.00,,,0.00,WeatherCatV1.15B25,2013-03-11 12:35:00,
2013-03-11 05:38:00,43.9,41.2,30.60,ENE,67,0.0,0.0,90,0.00,,,0.00,LWC V2.11 B50,2013-03-11 12:38:00,
2013-03-11 05:40:00,49.6,44.9,30.24,ESE,110,1.0,0.0,83,0.00,,,0.00,WeatherCatV1.15B25,2013-03-11 12:40:00,
2013-03-11 05:43:00,43.9,41.2,30.60,ENE,67,0.0,0.0,90,0.00,,,0.00,LWC V2.11 B50,2013-03-11 12:43:00,
2013-03-11 05:45:00,49.6,44.9,30.24,ESE,110,1.0,0.0,83,0.00,,,0.00,WeatherCatV1.15B25,2013-03-11 12:45:00,
2013-03-11 05:48:00,43.9,41.2,30.60,ENE,67,0.0,0.0,90,0.00,,,0.00,LWC V2.11 B50,2013-03-11 12:48:00,
2013-03-11 05:50:00,49.6,44.9,30.24,ESE,110,1.0,0.0,83,0.00,,,0.00,WeatherCatV1.15B25,2013-03-11 12:50:00,
2013-03-11 05:53:00,43.9,41.5,30.59,East,90,0.0,0.0,90,0.00,,,0.00,LWC V2.11 B50,2013-03-11 12:53:00,
2013-03-11 05:55:00,49.6,44.9,30.24,ESE,110,1.0,0.0,83,0.00,,,0.00,WeatherCatV1.15B25,2013-03-11 12:55:00,
2013-03-11 05:58:00,43.9,41.2,30.58,ENE,67,0.0,0.0,90,0.00,,,0.00,LWC V2.11 B50,2013-03-11 12:58:00,
2013-03-11 06:00:00,49.6,44.9,30.24,ESE,110,1.0,0.0,83,0.00,,,0.00,WeatherCatV1.15B25,2013-03-11 13:00:00,
2013-03-11 06:03:00,43.9,41.5,30.59,East,90,0.0,0.0,90,0.00,,,0.00,LWC V2.11 B50,2013-03-11 13:03:00,
2013-03-11 06:05:00,49.6,44.9,30.24,ESE,110,1.0,0.0,83,0.00,,,0.00,WeatherCatV1.15B25,2013-03-11 13:05:00,
2013-03-11 06:08:00,43.9,41.5,30.58,East,90,0.0,0.0,91,0.00,,,0.00,LWC V2.11 B50,2013-03-11 13:08:00,
2013-03-11 06:10:00,49.6,44.9,30.24,ESE,110,1.0,0.0,83,0.00,,,0.00,WeatherCatV1.15B25,2013-03-11 13:10:00,
2013-03-11 06:13:00,43.9,41.5,30.59,ESE,112,0.0,0.0,91,0.00,,,0.00,LWC V2.11 B50,2013-03-11 13:13:00,
2013-03-11 06:15:00,49.6,44.9,30.24,ESE,110,1.0,0.0,83,0.00,,,0.00,WeatherCatV1.15B25,2013-03-11 13:15:00,
2013-03-11 06:18:00,43.9,41.5,30.58,East,90,0.0,0.0,91,0.00,,,0.00,LWC V2.11 B50,2013-03-11 13:18:00,
2013-03-11 06:20:00,49.6,44.9,30.24,ESE,110,1.0,0.0,83,0.00,,,0.00,WeatherCatV1.15B25,2013-03-11 13:20:00,
2013-03-11 06:24:00,43.9,41.5,30.58,ENE,67,0.0,0.0,91,0.00,,,0.00,LWC V2.11 B50,2013-03-11 13:24:00,
2013-03-11 06:25:00,49.6,44.9,30.24,ESE,110,1.0,0.0,83,0.00,,,0.00,WeatherCatV1.15B25,2013-03-11 13:25:00,
2013-03-11 06:29:00,43.9,41.5,30.59,ENE,67,0.0,0.0,91,0.00,,,0.00,LWC V2.11 B50,2013-03-11 13:29:00,
2013-03-11 06:30:00,49.6,44.9,30.24,ESE,110,1.0,0.0,83,0.00,,,0.00,WeatherCatV1.15B25,2013-03-11 13:30:00,
2013-03-11 06:34:00,43.9,41.5,30.58,ESE,112,0.0,0.0,91,0.00,,,0.00,LWC V2.11 B50,2013-03-11 13:34:00,
2013-03-11 06:35:00,49.6,44.9,30.24,ESE,110,1.0,0.0,83,0.00,,,0.00,WeatherCatV1.15B25,2013-03-11 13:35:00,
2013-03-11 06:39:00,43.7,41.3,30.58,East,90,0.0,0.0,91,0.00,,,0.00,LWC V2.11 B50,2013-03-11 13:39:00,
2013-03-11 06:40:00,49.6,44.9,30.24,ESE,110,1.0,0.0,83,0.00,,,0.00,WeatherCatV1.15B25,2013-03-11 13:40:00,
2013-03-11 06:44:00,43.9,41.5,30.58,ENE,67,0.0,0.0,91,0.00,,,0.00,LWC V2.11 B50,2013-03-11 13:44:00,
2013-03-11 06:45:00,49.6,44.9,30.24,ESE,110,1.0,0.0,83,0.00,,,0.00,WeatherCatV1.15B25,2013-03-11 13:45:00,
2013-03-11 06:49:00,43.9,41.5,30.58,East,90,0.0,0.0,91,0.00,,,0.00,LWC V2.11 B50,2013-03-11 13:49:00,
2013-03-11 06:50:00,49.6,44.9,30.24,ESE,110,1.0,0.0,83,0.00,,,0.00,WeatherCatV1.15B25,2013-03-11 13:50:00,
2013-03-11 06:54:00,43.7,41.3,30.57,East,90,0.0,0.0,91,0.00,,,0.00,LWC V2.11 B50,2013-03-11 13:54:00,
2013-03-11 06:55:00,49.6,44.9,30.24,ESE,110,1.0,0.0,83,0.00,,,0.00,WeatherCatV1.15B25,2013-03-11 13:55:00,
2013-03-11 06:59:00,43.7,41.3,30.57,East,90,0.0,0.0,91,0.00,,,0.00,LWC V2.11 B50,2013-03-11 13:59:00,
2013-03-11 07:00:00,49.6,44.9,30.24,ESE,110,1.0,0.0,83,0.00,,,0.00,WeatherCatV1.15B25,2013-03-11 14:00:00,
2013-03-11 07:04:00,43.7,41.3,30.57,East,90,0.0,0.0,91,0.00,,,0.00,LWC V2.11 B50,2013-03-11 14:04:00,
2013-03-11 07:05:00,49.6,44.9,30.24,ESE,110,1.0,0.0,83,0.00,,,0.00,WeatherCatV1.15B25,2013-03-11 14:05:00,
2013-03-11 07:09:00,43.9,41.5,30.57,East,90,0.0,0.0,91,0.00,,,0.00,LWC V2.11 B50,2013-03-11 14:09:00,
2013-03-11 07:10:00,49.6,44.9,30.24,ESE,110,1.0,0.0,83,0.00,,,0.00,WeatherCatV1.15B25,2013-03-11 14:10:00,
2013-03-11 07:14:00,43.9,41.5,30.57,ENE,67,0.0,0.0,91,0.00,,,0.00,LWC V2.11 B50,2013-03-11 14:14:00,
2013-03-11 07:15:00,49.6,44.9,30.24,ESE,110,1.0,0.0,83,0.00,,,0.00,WeatherCatV1.15B25,2013-03-11 14:15:00,
2013-03-11 07:19:00,43.9,41.5,30.57,ENE,67,0.0,0.0,91,0.00,,,0.00,LWC V2.11 B50,2013-03-11 14:19:00,
2013-03-11 07:20:00,49.6,44.9,30.24,ESE,110,1.0,0.0,83,0.00,,,0.00,WeatherCatV1.15B25,2013-03-11 14:20:00,
2013-03-11 07:24:00,43.7,41.3,30.57,ENE,67,0.0,0.0,91,0.00,,,0.00,LWC V2.11 B50,2013-03-11 14:24:00,
2013-03-11 07:25:00,49.6,44.9,30.24,ESE,110,1.0,0.0,83,0.00,,,0.00,WeatherCatV1.15B25,2013-03-11 14:25:00,
2013-03-11 07:29:00,43.9,41.5,30.57,ENE,67,0.0,0.0,91,0.00,,,0.00,LWC V2.11 B50,2013-03-11 14:29:00,
2013-03-11 07:30:00,49.6,44.9,30.24,ESE,110,1.0,0.0,83,0.00,,,0.00,WeatherCatV1.15B25,2013-03-11 14:30:00,
2013-03-11 07:34:00,43.7,41.3,30.57,ENE,67,0.0,0.0,91,0.00,,,0.00,LWC V2.11 B50,2013-03-11 14:34:00,
2013-03-11 07:35:00,49.6,44.9,30.24,ESE,110,1.0,0.0,83,0.00,,,0.00,WeatherCatV1.15B25,2013-03-11 14:35:00,
2013-03-11 07:40:00,43.9,41.5,30.57,ENE,67,0.0,0.0,91,0.00,,,0.00,LWC V2.11 B50,2013-03-11 14:40:00,
2013-03-11 07:45:00,43.9,41.5,30.56,ENE,67,0.0,0.0,91,0.00,,,0.00,LWC V2.11 B50,2013-03-11 14:45:00,
2013-03-11 07:50:00,43.9,41.5,30.57,NE,45,0.0,0.0,91,0.00,,,0.00,LWC V2.11 B50,2013-03-11 14:50:00,
2013-03-11 07:55:00,43.9,41.5,30.57,ENE,67,0.0,0.0,91,0.00,,,0.00,LWC V2.11 B50,2013-03-11 14:55:00,
2013-03-11 08:00:00,43.9,41.5,30.57,ENE,67,0.0,0.0,91,0.00,,,0.00,LWC V2.11 B50,2013-03-11 15:00:00,
2013-03-11 08:05:00,43.9,41.5,30.57,ENE,67,0.0,0.0,91,0.00,,,0.00,LWC V2.11 B50,2013-03-11 15:05:00,
2013-03-11 08:10:00,43.9,41.5,30.57,ENE,67,0.0,0.0,91,0.00,,,0.00,LWC V2.11 B50,2013-03-11 15:10:00,
2013-03-11 08:15:00,44.1,41.6,30.57,ENE,67,0.0,0.0,91,0.00,,,0.00,LWC V2.11 B50,2013-03-11 15:15:00,
2013-03-11 08:20:00,44.1,41.6,30.57,ENE,67,0.0,0.0,91,0.00,,,0.00,LWC V2.11 B50,2013-03-11 15:20:00,
2013-03-11 08:25:00,44.1,41.9,30.56,ENE,67,0.0,0.0,92,0.00,,,0.00,LWC V2.11 B50,2013-03-11 15:25:00,
2013-03-11 08:30:00,44.1,41.9,30.57,ENE,67,0.0,0.0,92,0.00,,,0.00,LWC V2.11 B50,2013-03-11 15:30:00,
2013-03-11 08:35:00,44.2,42.1,30.57,ENE,67,0.0,0.0,92,0.00,,,0.00,LWC V2.11 B50,2013-03-11 15:35:00,
2013-03-11 08:40:00,44.2,42.1,30.57,NE,45,0.0,0.0,92,0.00,,,0.00,LWC V2.11 B50,2013-03-11 15:40:00,
2013-03-11 08:45:00,44.4,42.3,30.56,NE,45,0.0,0.0,92,0.00,,,0.00,LWC V2.11 B50,2013-03-11 15:45:00,
2013-03-11 08:50:00,44.2,42.1,30.57,NE,45,0.0,0.0,92,0.00,,,0.00,LWC V2.11 B50,2013-03-11 15:50:00,
2013-03-11 08:55:00,49.6,44.9,30.24,ESE,110,1.0,0.0,83,0.00,,,0.00,WeatherCatV1.15B25,2013-03-11 15:55:00,
2013-03-11 08:56:00,44.4,42.3,30.57,ENE,67,0.0,0.0,92,0.00,,,0.00,LWC V2.11 B50,2013-03-11 15:56:00,
2013-03-11 09:00:00,49.6,44.9,30.24,ESE,110,1.0,0.0,83,0.00,,,0.00,WeatherCatV1.15B25,2013-03-11 16:00:00,
2013-03-11 09:01:00,44.4,42.3,30.56,ENE,67,0.0,0.0,92,0.00,,,0.00,LWC V2.11 B50,2013-03-11 16:01:00,
2013-03-11 09:05:00,49.6,44.9,30.24,ESE,110,1.0,0.0,83,0.00,,,0.00,WeatherCatV1.15B25,2013-03-11 16:05:00,
2013-03-11 09:06:00,44.8,42.6,30.57,ENE,67,0.0,0.0,92,0.00,,,0.00,LWC V2.11 B50,2013-03-11 16:06:00,
2013-03-11 09:10:00,49.6,44.9,30.24,ESE,110,1.0,0.0,83,0.00,,,0.00,WeatherCatV1.15B25,2013-03-11 16:10:00,
2013-03-11 09:11:00,44.8,42.6,30.56,ENE,67,0.0,0.0,92,0.00,,,0.00,LWC V2.11 B50,2013-03-11 16:11:00,
2013-03-11 09:15:00,49.6,44.9,30.24,ESE,110,1.0,0.0,83,0.00,,,0.00,WeatherCatV1.15B25,2013-03-11 16:15:00,
2013-03-11 09:16:00,44.8,42.6,30.56,NE,45,0.0,0.0,92,0.00,,,0.00,LWC V2.11 B50,2013-03-11 16:16:00,
2013-03-11 09:20:00,49.6,44.9,30.24,ESE,110,1.0,0.0,83,0.00,,,0.00,WeatherCatV1.15B25,2013-03-11 16:20:00,
2013-03-11 09:21:00,44.8,42.8,30.56,SSE,157,0.0,0.0,92,0.00,,,0.00,LWC V2.11 B50,2013-03-11 16:21:00,
2013-03-11 09:25:00,49.6,44.9,30.24,ESE,110,1.0,0.0,83,0.00,,,0.00,WeatherCatV1.15B25,2013-03-11 16:25:00,
2013-03-11 09:26:00,45.1,43.0,30.57,WSW,247,0.0,0.0,92,0.00,,,0.00,LWC V2.11 B50,2013-03-11 16:26:00,
2013-03-11 09:30:00,49.6,44.9,30.24,ESE,110,1.0,0.0,83,0.00,,,0.00,WeatherCatV1.15B25,2013-03-11 16:30:00,
2013-03-11 09:31:00,45.1,43.0,30.57,SW,225,0.0,0.0,92,0.00,,,0.00,LWC V2.11 B50,2013-03-11 16:31:00,
2013-03-11 09:35:00,49.6,44.9,30.24,ESE,110,1.0,0.0,83,0.00,,,0.00,WeatherCatV1.15B25,2013-03-11 16:35:00,
2013-03-11 09:36:00,45.1,43.0,30.57,WSW,247,0.0,0.0,92,0.00,,,0.00,LWC V2.11 B50,2013-03-11 16:36:00,
2013-03-11 09:40:00,49.6,44.9,30.24,ESE,110,1.0,0.0,83,0.00,,,0.00,WeatherCatV1.15B25,2013-03-11 16:40:00,
2013-03-11 09:41:00,45.3,43.2,30.56,SW,225,0.0,0.0,92,0.00,,,0.00,LWC V2.11 B50,2013-03-11 16:41:00,
2013-03-11 09:45:00,49.6,44.9,30.24,ESE,110,1.0,0.0,83,0.00,,,0.00,WeatherCatV1.15B25,2013-03-11 16:45:00,
2013-03-11 09:46:00,45.5,43.1,30.56,WSW,247,0.0,0.0,92,0.00,,,0.00,LWC V2.11 B50,2013-03-11 16:46:00,
2013-03-11 09:50:00,49.6,44.9,30.24,ESE,110,1.0,0.0,83,0.00,,,0.00,WeatherCatV1.15B25,2013-03-11 16:50:00,
2013-03-11 09:51:00,45.7,43.2,30.57,WSW,247,0.0,0.0,91,0.00,,,0.00,LWC V2.11 B50,2013-03-11 16:51:00,
2013-03-11 09:55:00,49.6,44.9,30.24,ESE,110,1.0,0.0,83,0.00,,,0.00,WeatherCatV1.15B25,2013-03-11 16:55:00,
2013-03-11 09:56:00,45.7,43.2,30.57,SW,225,0.0,0.0,91,0.00,,,0.00,LWC V2.11 B50,2013-03-11 16:56:00,
2013-03-11 10:00:00,49.6,44.9,30.24,ESE,110,1.0,0.0,83,0.00,,,0.00,WeatherCatV1.15B25,2013-03-11 17:00:00,
2013-03-11 10:02:00,46.0,43.9,30.56,WSW,247,0.0,0.0,92,0.00,,,0.00,LWC V2.11 B50,2013-03-11 17:02:00,
2013-03-11 10:05:00,49.6,44.9,30.24,ESE,110,1.0,0.0,83,0.00,,,0.00,WeatherCatV1.15B25,2013-03-11 17:05:00,
2013-03-11 10:07:00,46.0,43.9,30.57,WSW,247,0.0,0.0,92,0.00,,,0.00,LWC V2.11 B50,2013-03-11 17:07:00,
2013-03-11 10:10:00,49.6,44.9,30.24,ESE,110,1.0,0.0,83,0.00,,,0.00,WeatherCatV1.15B25,2013-03-11 17:10:00,
2013-03-11 10:12:00,46.0,43.9,30.57,West,270,0.0,0.0,92,0.00,,,0.00,LWC V2.11 B50,2013-03-11 17:12:00,
2013-03-11 10:15:00,49.6,44.9,30.24,ESE,110,1.0,0.0,83,0.00,,,0.00,WeatherCatV1.15B25,2013-03-11 17:15:00,
2013-03-11 10:17:00,46.0,43.6,30.57,SW,225,0.0,0.0,91,0.00,,,0.00,LWC V2.11 B50,2013-03-11 17:17:00,
2013-03-11 10:20:00,49.6,44.9,30.24,ESE,110,1.0,0.0,83,0.00,,,0.00,WeatherCatV1.15B25,2013-03-11 17:20:00,
2013-03-11 10:22:00,46.2,43.8,30.57,WSW,247,0.0,0.0,91,0.00,,,0.00,LWC V2.11 B50,2013-03-11 17:22:00,
2013-03-11 10:25:00,49.6,44.9,30.24,ESE,110,1.0,0.0,83,0.00,,,0.00,WeatherCatV1.15B25,2013-03-11 17:25:00,
2013-03-11 10:27:00,46.2,43.8,30.57,WSW,247,0.0,0.0,91,0.00,,,0.00,LWC V2.11 B50,2013-03-11 17:27:00,
2013-03-11 10:30:00,49.6,44.9,30.24,ESE,110,1.0,0.0,83,0.00,,,0.00,WeatherCatV1.15B25,2013-03-11 17:30:00,
2013-03-11 10:32:00,46.2,43.8,30.56,WSW,247,0.0,0.0,91,0.00,,,0.00,LWC V2.11 B50,2013-03-11 17:32:00,
2013-03-11 10:35:00,49.6,44.9,30.24,ESE,110,1.0,0.0,83,0.00,,,0.00,WeatherCatV1.15B25,2013-03-11 17:35:00,
2013-03-11 10:37:00,46.4,44.0,30.56,WSW,247,0.0,0.0,91,0.00,,,0.00,LWC V2.11 B50,2013-03-11 17:37:00,
2013-03-11 10:40:00,49.6,44.9,30.24,ESE,110,1.0,0.0,83,0.00,,,0.00,WeatherCatV1.15B25,2013-03-11 17:40:00,
2013-03-11 10:42:00,46.2,43.8,30.56,WSW,247,0.0,0.0,91,0.00,,,0.00,LWC V2.11 B50,2013-03-11 17:42:00,
2013-03-11 10:45:00,49.6,44.9,30.24,ESE,110,1.0,0.0,83,0.00,,,0.00,WeatherCatV1.15B25,2013-03-11 17:45:00,
2013-03-11 10:47:00,46.6,44.2,30.56,West,270,0.0,0.0,91,0.00,,,0.00,LWC V2.11 B50,2013-03-11 17:47:00,
2013-03-11 10:50:00,49.6,44.9,30.24,ESE,110,1.0,0.0,83,0.00,,,0.00,WeatherCatV1.15B25,2013-03-11 17:50:00,
2013-03-11 10:52:00,46.6,44.2,30.56,WSW,247,0.0,0.0,91,0.00,,,0.00,LWC V2.11 B50,2013-03-11 17:52:00,
2013-03-11 10:55:00,49.6,44.9,30.24,ESE,110,1.0,0.0,83,0.00,,,0.00,WeatherCatV1.15B25,2013-03-11 17:55:00,
2013-03-11 10:57:00,46.6,44.2,30.55,West,270,0.0,0.0,91,0.00,,,0.00,LWC V2.11 B50,2013-03-11 17:57:00,
2013-03-11 11:00:00,49.6,44.9,30.24,ESE,110,1.0,0.0,83,0.00,,,0.00,WeatherCatV1.15B25,2013-03-11 18:00:00,
2013-03-11 11:02:00,46.6,44.2,30.56,WSW,247,0.0,0.0,91,0.00,,,0.00,LWC V2.11 B50,2013-03-11 18:02:00,
2013-03-11 11:05:00,49.6,44.9,30.24,ESE,110,1.0,0.0,83,0.00,,,0.00,WeatherCatV1.15B25,2013-03-11 18:05:00,
2013-03-11 11:08:00,46.6,44.2,30.55,West,270,0.0,0.0,91,0.00,,,0.00,LWC V2.11 B50,2013-03-11 18:08:00,
2013-03-11 11:10:00,49.6,44.9,30.24,ESE,110,1.0,0.0,83,0.00,,,0.00,WeatherCatV1.15B25,2013-03-11 18:10:00,
2013-03-11 11:13:00,46.6,44.2,30.56,West,270,0.0,0.0,91,0.00,,,0.00,LWC V2.11 B50,2013-03-11 18:13:00,
2013-03-11 11:15:00,49.6,44.9,30.24,ESE,110,1.0,0.0,83,0.00,,,0.00,WeatherCatV1.15B25,2013-03-11 18:15:00,
2013-03-11 11:18:00,46.6,44.2,30.56,SSE,157,0.0,0.0,91,0.00,,,0.00,LWC V2.11 B50,2013-03-11 18:18:00,
2013-03-11 11:20:00,49.6,44.9,30.24,ESE,110,1.0,0.0,83,0.00,,,0.00,WeatherCatV1.15B25,2013-03-11 18:20:00,
2013-03-11 11:23:00,46.8,44.2,30.55,SSW,202,0.0,0.0,91,0.00,,,0.00,LWC V2.11 B50,2013-03-11 18:23:00,
2013-03-11 11:25:00,49.6,44.9,30.24,ESE,110,1.0,0.0,83,0.00,,,0.00,WeatherCatV1.15B25,2013-03-11 18:25:00,
2013-03-11 11:28:00,46.8,44.3,30.55,SSW,202,0.0,0.0,91,0.00,,,0.00,LWC V2.11 B50,2013-03-11 18:28:00,
2013-03-11 11:30:00,49.6,44.9,30.24,ESE,110,1.0,0.0,83,0.00,,,0.00,WeatherCatV1.15B25,2013-03-11 18:30:00,
2013-03-11 11:33:00,46.8,44.3,30.55,SSW,202,0.0,0.0,91,0.00,,,0.00,LWC V2.11 B50,2013-03-11 18:33:00,
2013-03-11 11:35:00,49.6,44.9,30.24,ESE,110,1.0,0.0,83,0.00,,,0.00,WeatherCatV1.15B25,2013-03-11 18:35:00,
2013-03-11 11:38:00,46.9,44.5,30.54,SW,225,0.0,0.0,91,0.00,,,0.00,LWC V2.11 B50,2013-03-11 18:38:00,
2013-03-11 11:40:00,49.6,44.9,30.24,ESE,110,1.0,0.0,83,0.00,,,0.00,WeatherCatV1.15B25,2013-03-11 18:40:00,
2013-03-11 11:43:00,47.1,44.7,30.55,WSW,247,0.0,0.0,91,0.00,,,0.00,LWC V2.11 B50,2013-03-11 18:43:00,
2013-03-11 11:45:00,49.6,44.9,30.24,ESE,110,1.0,0.0,83,0.00,,,0.00,WeatherCatV1.15B25,2013-03-11 18:45:00,
2013-03-11 11:48:00,47.1,44.7,30.55,West,270,0.0,0.0,91,0.00,,,0.00,LWC V2.11 B50,2013-03-11 18:48:00,
2013-03-11 11:50:00,49.6,44.9,30.24,ESE,110,1.0,0.0,83,0.00,,,0.00,WeatherCatV1.15B25,2013-03-11 18:50:00,
2013-03-11 11:53:00,47.3,44.9,30.55,SSW,202,0.0,0.0,91,0.00,,,0.00,LWC V2.11 B50,2013-03-11 18:53:00,
2013-03-11 11:55:00,49.6,44.9,30.24,ESE,110,1.0,0.0,83,0.00,,,0.00,WeatherCatV1.15B25,2013-03-11 18:55:00,
2013-03-11 11:58:00,47.5,45.0,30.55,WSW,247,0.0,0.0,91,0.00,,,0.00,LWC V2.11 B50,2013-03-11 18:58:00,
2013-03-11 12:00:00,49.6,44.9,30.24,ESE,110,1.0,0.0,83,0.00,,,0.00,WeatherCatV1.15B25,2013-03-11 19:00:00,
2013-03-11 12:03:00,47.8,45.4,30.54,WSW,247,0.0,0.0,91,0.00,,,0.00,LWC V2.11 B50,2013-03-11 19:03:00,
2013-03-11 12:05:00,49.6,44.9,30.24,ESE,110,1.0,0.0,83,0.00,,,0.00,WeatherCatV1.15B25,2013-03-11 19:05:00,
2013-03-11 12:08:00,47.8,45.4,30.54,WSW,247,0.0,0.0,91,0.00,,,0.00,LWC V2.11 B50,2013-03-11 19:08:00,
2013-03-11 12:10:00,49.6,44.9,30.24,ESE,110,1.0,0.0,83,0.00,,,0.00,WeatherCatV1.15B25,2013-03-11 19:10:00,
2013-03-11 12:13:00,48.0,45.6,30.54,WSW,247,0.0,0.0,91,0.00,,,0.00,LWC V2.11 B50,2013-03-11 19:13:00,
2013-03-11 12:15:00,49.6,44.9,30.24,ESE,110,1.0,0.0,83,0.00,,,0.00,WeatherCatV1.15B25,2013-03-11 19:15:00,
2013-03-11 12:19:00,48.4,45.9,30.54,WNW,292,0.0,0.0,91,0.00,,,0.00,LWC V2.11 B50,2013-03-11 19:19:00,
2013-03-11 12:20:00,49.6,44.9,30.24,ESE,110,1.0,0.0,83,0.00,,,0.00,WeatherCatV1.15B25,2013-03-11 19:20:00,
2013-03-11 12:24:00,48.6,46.1,30.54,WNW,292,0.0,0.0,91,0.00,,,0.00,LWC V2.11 B50,2013-03-11 19:24:00,
2013-03-11 12:25:00,49.6,44.9,30.24,ESE,110,1.0,0.0,83,0.00,,,0.00,WeatherCatV1.15B25,2013-03-11 19:25:00,
2013-03-11 12:29:00,48.7,46.3,30.53,WNW,292,0.0,0.0,91,0.00,,,0.00,LWC V2.11 B50,2013-03-11 19:29:00,
2013-03-11 12:30:00,49.6,44.9,30.24,ESE,110,1.0,0.0,83,0.00,,,0.00,WeatherCatV1.15B25,2013-03-11 19:30:00,
2013-03-11 12:34:00,48.9,46.1,30.53,WNW,292,0.0,0.0,90,0.00,,,0.00,LWC V2.11 B50,2013-03-11 19:34:00,
2013-03-11 12:35:00,49.6,44.9,30.24,ESE,110,1.0,0.0,83,0.00,,,0.00,WeatherCatV1.15B25,2013-03-11 19:35:00,
2013-03-11 12:39:00,49.3,46.5,30.53,West,270,0.0,0.0,90,0.00,,,0.00,LWC V2.11 B50,2013-03-11 19:39:00,
2013-03-11 12:40:00,49.6,44.9,30.24,ESE,110,1.0,0.0,83,0.00,,,0.00,WeatherCatV1.15B25,2013-03-11 19:40:00,
2013-03-11 12:44:00,49.3,46.8,30.53,West,270,0.0,0.0,90,0.00,,,0.00,LWC V2.11 B50,2013-03-11 19:44:00,
2013-03-11 12:45:00,49.6,44.9,30.24,ESE,110,1.0,0.0,83,0.00,,,0.00,WeatherCatV1.15B25,2013-03-11 19:45:00,
2013-03-11 12:49:00,49.8,47.0,30.53,WSW,247,0.0,0.0,90,0.00,,,0.00,LWC V2.11 B50,2013-03-11 19:49:00,
2013-03-11 12:50:00,49.6,44.9,30.24,ESE,110,1.0,0.0,83,0.00,,,0.00,WeatherCatV1.15B25,2013-03-11 19:50:00,
2013-03-11 12:54:00,49.8,47.0,30.54,West,270,0.0,0.0,90,0.00,,,0.00,LWC V2.11 B50,2013-03-11 19:54:00,
2013-03-11 12:55:00,49.6,44.9,30.24,ESE,110,1.0,0.0,83,0.00,,,0.00,WeatherCatV1.15B25,2013-03-11 19:55:00,
2013-03-11 12:59:00,50.2,47.0,30.54,WSW,247,0.0,0.0,89,0.00,,,0.00,LWC V2.11 B50,2013-03-11 19:59:00,
2013-03-11 13:00:00,49.6,44.9,30.24,ESE,110,1.0,0.0,83,0.00,,,0.00,WeatherCatV1.15B25,2013-03-11 20:00:00,
2013-03-11 13:04:00,50.2,47.0,30.53,SSW,202,0.0,0.0,89,0.00,,,0.00,LWC V2.11 B50,2013-03-11 20:04:00,
2013-03-11 13:05:00,49.6,44.9,30.24,ESE,110,1.0,0.0,83,0.00,,,0.00,WeatherCatV1.15B25,2013-03-11 20:05:00,
2013-03-11 13:09:00,50.2,46.7,30.53,SW,225,0.0,0.0,88,0.00,,,0.00,LWC V2.11 B50,2013-03-11 20:09:00,
2013-03-11 13:10:00,49.6,44.9,30.24,ESE,110,1.0,0.0,83,0.00,,,0.00,WeatherCatV1.15B25,2013-03-11 20:10:00,
2013-03-11 13:14:00,50.2,46.7,30.53,WSW,247,0.0,0.0,88,0.00,,,0.00,LWC V2.11 B50,2013-03-11 20:14:00,
2013-03-11 13:15:00,49.6,44.9,30.24,ESE,110,1.0,0.0,83,0.00,,,0.00,WeatherCatV1.15B25,2013-03-11 20:15:00,
2013-03-11 13:19:00,50.2,46.7,30.53,SSW,202,0.0,0.0,88,0.00,,,0.00,LWC V2.11 B50,2013-03-11 20:19:00,
2013-03-11 13:20:00,49.6,44.9,30.24,ESE,110,1.0,0.0,83,0.00,,,0.00,WeatherCatV1.15B25,2013-03-11 20:20:00,
2013-03-11 13:24:00,50.0,46.5,30.53,SW,225,0.0,0.0,88,0.00,,,0.00,LWC V2.11 B50,2013-03-11 20:24:00,
2013-03-11 13:25:00,49.6,44.9,30.24,ESE,110,1.0,0.0,83,0.00,,,0.00,WeatherCatV1.15B25,2013-03-11 20:25:00,
2013-03-11 13:29:00,50.2,46.7,30.53,SW,225,0.0,0.0,88,0.00,,,0.00,LWC V2.11 B50,2013-03-11 20:29:00,
2013-03-11 13:30:00,49.6,44.9,30.24,ESE,110,1.0,0.0,83,0.00,,,0.00,WeatherCatV1.15B25,2013-03-11 20:30:00,
2013-03-11 13:35:00,50.2,46.7,30.52,SSW,202,0.0,0.0,88,0.00,,,0.00,LWC V2.11 B50,2013-03-11 20:35:00,
2013-03-11 13:40:00,50.2,46.7,30.52,SW,225,0.0,0.0,88,0.00,,,0.00,LWC V2.11 B50,2013-03-11 20:40:00,
2013-03-11 13:45:00,50.5,47.0,30.52,SW,225,0.0,0.0,88,0.00,,,0.00,LWC V2.11 B50,2013-03-11 20:45:00,
2013-03-11 13:50:00,50.7,46.9,30.51,SW,225,0.0,0.0,87,0.00,,,0.00,LWC V2.11 B50,2013-03-11 20:50:00,
2013-03-11 13:55:00,50.7,47.1,30.51,SW,225,0.0,0.0,87,0.00,,,0.00,LWC V2.11 B50,2013-03-11 20:55:00,
2013-03-11 14:00:00,50.9,46.8,30.51,SW,225,0.0,0.0,86,0.00,,,0.00,LWC V2.11 B50,2013-03-11 21:00:00,
2013-03-11 14:05:00,50.7,46.6,30.51,SSW,202,0.0,0.0,86,0.00,,,0.00,LWC V2.11 B50,2013-03-11 21:05:00,
2013-03-11 14:10:00,50.7,46.3,30.51,SW,225,0.0,0.0,85,0.00,,,0.00,LWC V2.11 B50,2013-03-11 21:10:00,
2013-03-11 14:15:00,50.5,46.1,30.50,SW,225,0.0,0.0,85,0.00,,,0.00,LWC V2.11 B50,2013-03-11 21:15:00,
2013-03-11 14:20:00,50.5,46.1,30.50,SSW,202,0.0,0.0,85,0.00,,,0.00,LWC V2.11 B50,2013-03-11 21:20:00,
2013-03-11 14:25:00,50.5,46.1,30.50,SSW,202,0.0,0.0,85,0.00,,,0.00,LWC V2.11 B50,2013-03-11 21:25:00,
2013-03-11 14:30:00,50.5,46.1,30.49,WSW,247,0.0,0.0,85,0.00,,,0.00,LWC V2.11 B50,2013-03-11 21:30:00,
2013-03-11 14:35:00,50.7,46.5,30.49,WSW,247,0.0,0.0,85,0.00,,,0.00,LWC V2.11 B50,2013-03-11 21:35:00,
2013-03-11 14:40:00,51.1,46.7,30.49,SW,225,0.0,0.0,85,0.00,,,0.00,LWC V2.11 B50,2013-03-11 21:40:00,
2013-03-11 14:45:00,51.1,46.4,30.49,SW,225,0.0,0.0,84,0.00,,,0.00,LWC V2.11 B50,2013-03-11 21:45:00,
2013-03-11 14:50:00,49.6,44.9,30.24,ESE,110,1.0,0.0,83,0.00,,,0.00,WeatherCatV1.15B25,2013-03-11 21:50:00,
2013-03-11 14:51:00,51.3,46.5,30.48,SW,225,0.0,0.0,84,0.00,,,0.00,LWC V2.11 B50,2013-03-11 21:51:00,
2013-03-11 14:55:00,49.6,44.9,30.24,ESE,110,1.0,0.0,83,0.00,,,0.00,WeatherCatV1.15B25,2013-03-11 21:55:00,
2013-03-11 14:56:00,51.3,46.5,30.49,SW,225,0.0,0.0,84,0.00,,,0.00,LWC V2.11 B50,2013-03-11 21:56:00,
2013-03-11 15:00:00,49.6,44.9,30.24,ESE,110,1.0,0.0,83,0.00,,,0.00,WeatherCatV1.15B25,2013-03-11 22:00:00,
2013-03-11 15:01:00,51.1,46.4,30.48,SW,225,0.0,0.0,84,0.00,,,0.00,LWC V2.11 B50,2013-03-11 22:01:00,
2013-03-11 15:05:00,49.6,44.9,30.24,ESE,110,1.0,0.0,83,0.00,,,0.00,WeatherCatV1.15B25,2013-03-11 22:05:00,
2013-03-11 15:06:00,50.9,46.2,30.48,South,180,0.0,0.0,84,0.00,,,0.00,LWC V2.11 B50,2013-03-11 22:06:00,
2013-03-11 15:10:00,49.6,44.9,30.24,ESE,110,1.0,0.0,83,0.00,,,0.00,WeatherCatV1.15B25,2013-03-11 22:10:00,
2013-03-11 15:11:00,50.9,46.2,30.48,SW,225,0.0,0.0,84,0.00,,,0.00,LWC V2.11 B50,2013-03-11 22:11:00,
2013-03-11 15:15:00,49.6,44.9,30.24,ESE,110,1.0,0.0,83,0.00,,,0.00,WeatherCatV1.15B25,2013-03-11 22:15:00,
2013-03-11 15:16:00,50.9,46.2,30.48,SW,225,0.0,0.0,84,0.00,,,0.00,LWC V2.11 B50,2013-03-11 22:16:00,
2013-03-11 15:20:00,49.6,44.9,30.24,ESE,110,1.0,0.0,83,0.00,,,0.00,WeatherCatV1.15B25,2013-03-11 22:20:00,
2013-03-11 15:21:00,50.9,46.2,30.47,SSW,202,0.0,0.0,84,0.00,,,0.00,LWC V2.11 B50,2013-03-11 22:21:00,
2013-03-11 15:25:00,49.6,44.9,30.24,ESE,110,1.0,0.0,83,0.00,,,0.00,WeatherCatV1.15B25,2013-03-11 22:25:00,
2013-03-11 15:26:00,51.1,46.4,30.47,South,180,0.0,0.0,84,0.00,,,0.00,LWC V2.11 B50,2013-03-11 22:26:00,
2013-03-11 15:30:00,49.6,44.9,30.24,ESE,110,1.0,0.0,83,0.00,,,0.00,WeatherCatV1.15B25,2013-03-11 22:30:00,
2013-03-11 15:31:00,51.1,46.4,30.47,SW,225,0.0,0.0,84,0.00,,,0.00,LWC V2.11 B50,2013-03-11 22:31:00,
2013-03-11 15:35:00,49.6,44.9,30.24,ESE,110,1.0,0.0,83,0.00,,,0.00,WeatherCatV1.15B25,2013-03-11 22:35:00,
2013-03-11 15:36:00,51.1,46.4,30.47,SW,225,0.0,0.0,84,0.00,,,0.00,LWC V2.11 B50,2013-03-11 22:36:00,
2013-03-11 15:40:00,49.6,44.9,30.24,ESE,110,1.0,0.0,83,0.00,,,0.00,WeatherCatV1.15B25,2013-03-11 22:40:00,
2013-03-11 15:41:00,51.3,46.2,30.47,SW,225,0.0,0.0,83,0.00,,,0.00,LWC V2.11 B50,2013-03-11 22:41:00,
2013-03-11 15:45:00,49.6,44.9,30.24,ESE,110,1.0,0.0,83,0.00,,,0.00,WeatherCatV1.15B25,2013-03-11 22:45:00,
2013-03-11 15:46:00,51.4,46.4,30.46,SW,225,0.0,0.0,83,0.00,,,0.00,LWC V2.11 B50,2013-03-11 22:46:00,
2013-03-11 15:50:00,49.6,44.9,30.24,ESE,110,1.0,0.0,83,0.00,,,0.00,WeatherCatV1.15B25,2013-03-11 22:50:00,
2013-03-11 15:51:00,51.4,46.4,30.46,SW,225,0.0,0.0,83,0.00,,,0.00,LWC V2.11 B50,2013-03-11 22:51:00,
2013-03-11 15:55:00,49.6,44.9,30.24,ESE,110,1.0,0.0,83,0.00,,,0.00,WeatherCatV1.15B25,2013-03-11 22:55:00,
2013-03-11 15:56:00,51.4,46.4,30.46,SW,225,0.0,0.0,83,0.00,,,0.00,LWC V2.11 B50,2013-03-11 22:56:00,
2013-03-11 16:00:00,49.6,44.9,30.24,ESE,110,1.0,0.0,83,0.00,,,0.00,WeatherCatV1.15B25,2013-03-11 23:00:00,
2013-03-11 16:02:00,51.6,46.6,30.46,SW,225,0.0,0.0,83,0.00,,,0.00,LWC V2.11 B50,2013-03-11 23:02:00,
2013-03-11 16:05:00,49.6,44.9,30.24,ESE,110,1.0,0.0,83,0.00,,,0.00,WeatherCatV1.15B25,2013-03-11 23:05:00,
2013-03-11 16:07:00,51.6,46.6,30.46,SW,225,0.0,0.0,83,0.00,,,0.00,LWC V2.11 B50,2013-03-11 23:07:00,
2013-03-11 16:10:00,49.6,44.9,30.24,ESE,110,1.0,0.0,83,0.00,,,0.00,WeatherCatV1.15B25,2013-03-11 23:10:00,
2013-03-11 16:12:00,51.6,46.6,30.45,SW,225,0.0,0.0,83,0.00,,,0.00,LWC V2.11 B50,2013-03-11 23:12:00,
2013-03-11 16:15:00,49.6,44.9,30.24,ESE,110,1.0,0.0,83,0.00,,,0.00,WeatherCatV1.15B25,2013-03-11 23:15:00,
2013-03-11 16:17:00,51.6,46.6,30.45,SSW,202,0.0,0.0,83,0.00,,,0.00,LWC V2.11 B50,2013-03-11 23:17:00,
2013-03-11 16:20:00,49.6,44.9,30.24,ESE,110,1.0,0.0,83,0.00,,,0.00,WeatherCatV1.15B25,2013-03-11 23:20:00,
2013-03-11 16:22:00,51.6,46.6,30.46,SSW,202,0.0,0.0,83,0.00,,,0.00,LWC V2.11 B50,2013-03-11 23:22:00,
2013-03-11 16:25:00,49.6,44.9,30.24,ESE,110,1.0,0.0,83,0.00,,,0.00,WeatherCatV1.15B25,2013-03-11 23:25:00,
2013-03-11 16:27:00,51.4,46.4,30.45,WSW,247,0.0,0.0,83,0.00,,,0.00,LWC V2.11 B50,2013-03-11 23:27:00,
2013-03-11 16:30:00,49.6,44.9,30.24,ESE,110,1.0,0.0,83,0.00,,,0.00,WeatherCatV1.15B25,2013-03-11 23:30:00,
2013-03-11 16:32:00,51.6,46.6,30.45,SW,225,0.0,0.0,83,0.00,,,0.00,LWC V2.11 B50,2013-03-11 23:32:00,
2013-03-11 16:35:00,49.6,44.9,30.24,ESE,110,1.0,0.0,83,0.00,,,0.00,WeatherCatV1.15B25,2013-03-11 23:35:00,
2013-03-11 16:37:00,51.4,46.4,30.45,SW,225,0.0,0.0,83,0.00,,,0.00,LWC V2.11 B50,2013-03-11 23:37:00,
2013-03-11 16:40:00,49.6,44.9,30.24,ESE,110,1.0,0.0,83,0.00,,,0.00,WeatherCatV1.15B25,2013-03-11 23:40:00,
2013-03-11 16:42:00,51.4,46.4,30.45,SSW,202,0.0,0.0,83,0.00,,,0.00,LWC V2.11 B50,2013-03-11 23:42:00,
2013-03-11 16:45:00,49.6,44.9,30.24,ESE,110,1.0,0.0,83,0.00,,,0.00,WeatherCatV1.15B25,2013-03-11 23:45:00,
2013-03-11 16:47:00,51.4,46.4,30.45,SW,225,0.0,0.0,83,0.00,,,0.00,LWC V2.11 B50,2013-03-11 23:47:00,
2013-03-11 16:50:00,49.6,44.9,30.24,ESE,110,1.0,0.0,83,0.00,,,0.00,WeatherCatV1.15B25,2013-03-11 23:50:00,
2013-03-11 16:52:00,51.4,46.4,30.45,SW,225,0.0,0.0,83,0.00,,,0.00,LWC V2.11 B50,2013-03-11 23:52:00,
2013-03-11 16:55:00,49.6,44.9,30.24,ESE,110,1.0,0.0,83,0.00,,,0.00,WeatherCatV1.15B25,2013-03-11 23:55:00,
2013-03-11 16:57:00,51.4,46.4,30.45,SW,225,0.0,0.0,83,0.00,,,0.00,LWC V2.11 B50,2013-03-11 23:57:00,
2013-03-11 17:00:00,49.6,44.9,30.24,ESE,110,1.0,0.0,83,0.00,,,0.00,WeatherCatV1.15B25,2013-03-12 00:00:00,
2013-03-11 17:02:00,51.4,46.1,30.44,SW,225,0.0,0.0,82,0.00,,,0.00,LWC V2.11 B50,2013-03-12 00:02:00,
2013-03-11 17:05:00,49.6,44.9,30.24,ESE,110,1.0,0.0,83,0.00,,,0.00,WeatherCatV1.15B25,2013-03-12 00:05:00,
2013-03-11 17:07:00,51.4,46.4,30.45,SSW,202,0.0,0.0,83,0.00,,,0.00,LWC V2.11 B50,2013-03-12 00:07:00,
2013-03-11 17:10:00,49.6,44.9,30.24,ESE,110,1.0,0.0,83,0.00,,,0.00,WeatherCatV1.15B25,2013-03-12 00:10:00,
2013-03-11 17:12:00,51.1,45.8,30.44,SSW,202,0.0,0.0,82,0.00,,,0.00,LWC V2.11 B50,2013-03-12 00:12:00,
2013-03-11 17:15:00,49.6,44.9,30.24,ESE,110,1.0,0.0,83,0.00,,,0.00,WeatherCatV1.15B25,2013-03-12 00:15:00,
2013-03-11 17:18:00,51.1,45.8,30.44,SSW,202,0.0,0.0,82,0.00,,,0.00,LWC V2.11 B50,2013-03-12 00:18:00,
2013-03-11 17:20:00,49.6,44.9,30.24,ESE,110,1.0,0.0,83,0.00,,,0.00,WeatherCatV1.15B25,2013-03-12 00:20:00,
2013-03-11 17:23:00,51.1,46.1,30.44,SSW,202,0.0,0.0,83,0.00,,,0.00,LWC V2.11 B50,2013-03-12 00:23:00,
2013-03-11 17:25:00,49.6,44.9,30.24,ESE,110,1.0,0.0,83,0.00,,,0.00,WeatherCatV1.15B25,2013-03-12 00:25:00,
2013-03-11 17:28:00,50.9,45.9,30.44,SSW,202,0.0,0.0,83,0.00,,,0.00,LWC V2.11 B50,2013-03-12 00:28:00,
2013-03-11 17:30:00,49.6,44.9,30.24,ESE,110,1.0,0.0,83,0.00,,,0.00,WeatherCatV1.15B25,2013-03-12 00:30:00,
2013-03-11 17:33:00,51.1,46.1,30.44,SSW,202,0.0,0.0,83,0.00,,,0.00,LWC V2.11 B50,2013-03-12 00:33:00,
2013-03-11 17:35:00,49.6,44.9,30.24,ESE,110,1.0,0.0,83,0.00,,,0.00,WeatherCatV1.15B25,2013-03-12 00:35:00,
2013-03-11 17:38:00,50.9,45.9,30.43,SSW,202,0.0,0.0,83,0.00,,,0.00,LWC V2.11 B50,2013-03-12 00:38:00,
2013-03-11 17:40:00,49.6,44.9,30.24,ESE,110,1.0,0.0,83,0.00,,,0.00,WeatherCatV1.15B25,2013-03-12 00:40:00,
2013-03-11 17:43:00,50.7,45.7,30.43,WSW,247,0.0,0.0,83,0.00,,,0.00,LWC V2.11 B50,2013-03-12 00:43:00,
2013-03-11 17:45:00,49.6,44.9,30.24,ESE,110,1.0,0.0,83,0.00,,,0.00,WeatherCatV1.15B25,2013-03-12 00:45:00,
2013-03-11 17:48:00,50.7,46.0,30.44,South,180,0.0,0.0,84,0.00,,,0.00,LWC V2.11 B50,2013-03-12 00:48:00,
2013-03-11 17:50:00,49.6,44.9,30.24,ESE,110,1.0,0.0,83,0.00,,,0.00,WeatherCatV1.15B25,2013-03-12 00:50:00,
2013-03-11 17:53:00,50.7,46.0,30.43,SSW,202,0.0,0.0,84,0.00,,,0.00,LWC V2.11 B50,2013-03-12 00:53:00,
2013-03-11 17:55:00,49.6,44.9,30.24,ESE,110,1.0,0.0,83,0.00,,,0.00,WeatherCatV1.15B25,2013-03-12 00:55:00,
2013-03-11 17:58:00,50.5,45.8,30.43,South,180,0.0,0.0,84,0.00,,,0.00,LWC V2.11 B50,2013-03-12 00:58:00,
2013-03-11 18:00:00,49.6,44.9,30.24,ESE,110,1.0,0.0,83,0.00,,,0.00,WeatherCatV1.15B25,2013-03-12 01:00:00,
2013-03-11 18:03:00,50.5,45.8,30.43,South,180,0.0,0.0,84,0.00,,,0.00,LWC V2.11 B50,2013-03-12 01:03:00,
2013-03-11 18:05:00,49.6,44.9,30.24,ESE,110,1.0,0.0,83,0.00,,,0.00,WeatherCatV1.15B25,2013-03-12 01:05:00,
2013-03-11 18:08:00,50.2,45.6,30.42,SE,135,0.0,0.0,84,0.02,,,0.02,LWC V2.11 B50,2013-03-12 01:08:00,
2013-03-11 18:10:00,49.6,44.9,30.24,ESE,110,1.0,0.0,83,0.00,,,0.00,WeatherCatV1.15B25,2013-03-12 01:10:00,
2013-03-11 18:13:00,50.2,45.5,30.42,SE,135,0.0,0.0,84,0.02,,,0.02,LWC V2.11 B50,2013-03-12 01:13:00,
2013-03-11 18:15:00,49.6,44.9,30.24,ESE,110,1.0,0.0,83,0.00,,,0.00,WeatherCatV1.15B25,2013-03-12 01:15:00,
2013-03-11 18:18:00,49.8,45.1,30.42,SSE,157,0.0,0.0,84,0.02,,,0.02,LWC V2.11 B50,2013-03-12 01:18:00,
2013-03-11 18:20:00,49.6,44.9,30.24,ESE,110,1.0,0.0,83,0.00,,,0.00,WeatherCatV1.15B25,2013-03-12 01:20:00,
2013-03-11 18:23:00,49.8,45.4,30.42,ESE,112,0.0,0.0,85,0.02,,,0.02,LWC V2.11 B50,2013-03-12 01:23:00,
2013-03-11 18:25:00,49.6,44.9,30.24,ESE,110,1.0,0.0,83,0.00,,,0.00,WeatherCatV1.15B25,2013-03-12 01:25:00,
2013-03-11 18:28:00,49.8,45.4,30.42,SSE,157,0.0,0.0,85,0.02,,,0.02,LWC V2.11 B50,2013-03-12 01:28:00,
2013-03-11 18:30:00,49.6,44.9,30.24,ESE,110,1.0,0.0,83,0.00,,,0.00,WeatherCatV1.15B25,2013-03-12 01:30:00,
2013-03-11 18:34:00,49.6,45.2,30.41,NE,45,0.0,0.0,85,0.02,,,0.02,LWC V2.11 B50,2013-03-12 01:34:00,
2013-03-11 18:35:00,49.6,44.9,30.24,ESE,110,1.0,0.0,83,0.00,,,0.00,WeatherCatV1.15B25,2013-03-12 01:35:00,
2013-03-11 18:39:00,49.5,45.1,30.41,SSE,157,0.0,0.0,85,0.02,,,0.02,LWC V2.11 B50,2013-03-12 01:39:00,
2013-03-11 18:40:00,49.6,44.9,30.24,ESE,110,1.0,0.0,83,0.00,,,0.00,WeatherCatV1.15B25,2013-03-12 01:40:00,
2013-03-11 18:44:00,49.3,44.9,30.42,South,180,0.0,0.0,85,0.02,,,0.02,LWC V2.11 B50,2013-03-12 01:44:00,
2013-03-11 18:45:00,49.6,44.9,30.24,ESE,110,1.0,0.0,83,0.00,,,0.00,WeatherCatV1.15B25,2013-03-12 01:45:00,
2013-03-11 18:49:00,49.3,44.9,30.41,SSW,202,0.0,0.0,85,0.02,,,0.02,LWC V2.11 B50,2013-03-12 01:49:00,
2013-03-11 18:50:00,49.6,44.9,30.24,ESE,110,1.0,0.0,83,0.00,,,0.00,WeatherCatV1.15B25,2013-03-12 01:50:00,
2013-03-11 18:54:00,49.3,45.2,30.41,South,180,0.0,0.0,86,0.02,,,0.02,LWC V2.11 B50,2013-03-12 01:54:00,
2013-03-11 18:55:00,49.6,44.9,30.24,ESE,110,1.0,0.0,83,0.00,,,0.00,WeatherCatV1.15B25,2013-03-12 01:55:00,
2013-03-11 18:59:00,49.1,45.0,30.41,WSW,247,0.0,0.0,86,0.02,,,0.02,LWC V2.11 B50,2013-03-12 01:59:00,
2013-03-11 19:00:00,50.4,45.6,30.43,SSE,166,0.0,0.0,84,0.02,,,0.00,LWC V2.11 B50,2013-03-12 02:00:00,
2013-03-11 19:04:00,49.1,44.9,30.40,South,180,0.0,0.0,86,0.00,,,0.02,LWC V2.11 B50,2013-03-12 02:04:00,
2013-03-11 19:05:00,49.6,44.9,30.24,ESE,110,1.0,0.0,83,0.00,,,0.00,WeatherCatV1.15B25,2013-03-12 02:05:00,
2013-03-11 19:10:00,49.8,45.1,30.42,SSE,154,0.0,0.0,84,0.02,,,0.00,LWC V2.11 B50,2013-03-12 02:10:00,
2013-03-11 19:15:00,49.6,44.9,30.24,ESE,110,1.0,0.0,83,0.00,,,0.00,WeatherCatV1.15B25,2013-03-12 02:15:00,
2013-03-11 19:20:00,49.6,45.2,30.42,SSE,147,0.0,0.0,85,0.02,,,0.00,LWC V2.11 B50,2013-03-12 02:20:00,
2013-03-11 19:25:00,49.6,44.9,30.24,ESE,110,1.0,0.0,83,0.00,,,0.00,WeatherCatV1.15B25,2013-03-12 02:25:00,
2013-03-11 19:30:00,49.5,45.1,30.41,SE,128,0.0,0.0,85,0.02,,,0.00,LWC V2.11 B50,2013-03-12 02:30:00,
2013-03-11 19:35:00,49.6,44.9,30.24,ESE,110,1.0,0.0,83,0.00,,,0.00,WeatherCatV1.15B25,2013-03-12 02:35:00,
2013-03-11 19:40:00,49.3,44.9,30.41,South,178,0.0,0.0,85,0.02,,,0.00,LWC V2.11 B50,2013-03-12 02:40:00,
2013-03-11 19:45:00,49.6,44.9,30.24,ESE,110,1.0,0.0,83,0.00,,,0.00,WeatherCatV1.15B25,2013-03-12 02:45:00,
2013-03-11 19:50:00,49.6,44.9,30.24,ESE,110,1.0,0.0,83,0.00,,,0.00,WeatherCatV1.15B25,2013-03-12 02:50:00,
2013-03-11 19:55:00,49.6,44.9,30.24,ESE,110,1.0,0.0,83,0.00,,,0.00,WeatherCatV1.15B25,2013-03-12 02:55:00,
2013-03-11 19:58:00,47.8,-99.9,30.37,SE,135,0.0,0.0,-999,-99.99,,,0.02,LWC V2.11 B50,2013-03-12 02:58:00,
2013-03-11 20:00:00,49.6,44.9,30.24,ESE,110,1.0,0.0,83,0.00,,,0.00,WeatherCatV1.15B25,2013-03-12 03:00:00,
2013-03-11 20:03:00,47.8,44.2,30.36,SE,135,0.0,0.0,87,0.00,,,0.02,LWC V2.11 B50,2013-03-12 03:03:00,
2013-03-11 20:05:00,49.6,44.9,30.24,ESE,110,1.0,0.0,83,0.00,,,0.00,WeatherCatV1.15B25,2013-03-12 03:05:00,
2013-03-11 20:08:00,47.7,44.3,30.36,SSW,202,0.0,0.0,88,0.00,,,0.02,LWC V2.11 B50,2013-03-12 03:08:00,
2013-03-11 20:10:00,49.6,44.9,30.24,ESE,110,1.0,0.0,83,0.00,,,0.00,WeatherCatV1.15B25,2013-03-12 03:10:00,
2013-03-11 20:13:00,47.5,44.1,30.36,SSE,157,0.0,0.0,88,0.00,,,0.02,LWC V2.11 B50,2013-03-12 03:13:00,
2013-03-11 20:15:00,49.6,44.9,30.24,ESE,110,1.0,0.0,83,0.00,,,0.00,WeatherCatV1.15B25,2013-03-12 03:15:00,
2013-03-11 20:18:00,47.5,44.1,30.36,SE,135,0.0,0.0,88,0.00,,,0.02,LWC V2.11 B50,2013-03-12 03:18:00,
2013-03-11 20:20:00,49.6,44.9,30.24,ESE,110,1.0,0.0,83,0.00,,,0.00,WeatherCatV1.15B25,2013-03-12 03:20:00,
2013-03-11 20:23:00,47.5,44.1,30.36,ENE,67,0.0,0.0,88,0.00,,,0.02,LWC V2.11 B50,2013-03-12 03:23:00,
2013-03-11 20:25:00,49.6,44.9,30.24,ESE,110,1.0,0.0,83,0.00,,,0.00,WeatherCatV1.15B25,2013-03-12 03:25:00,
2013-03-11 20:29:00,47.5,44.1,30.36,ESE,112,0.0,0.0,88,0.00,,,0.02,LWC V2.11 B50,2013-03-12 03:29:00,
2013-03-11 20:30:00,49.6,44.9,30.24,ESE,110,1.0,0.0,83,0.00,,,0.00,WeatherCatV1.15B25,2013-03-12 03:30:00,
2013-03-11 20:34:00,47.5,44.5,30.36,South,180,0.0,0.0,89,0.00,,,0.02,LWC V2.11 B50,2013-03-12 03:34:00,
2013-03-11 20:35:00,49.6,44.9,30.24,ESE,110,1.0,0.0,83,0.00,,,0.00,WeatherCatV1.15B25,2013-03-12 03:35:00,
2013-03-11 20:39:00,47.3,44.3,30.36,SE,135,0.0,0.0,89,0.00,,,0.02,LWC V2.11 B50,2013-03-12 03:39:00,
2013-03-11 20:40:00,49.6,44.9,30.24,ESE,110,1.0,0.0,83,0.00,,,0.00,WeatherCatV1.15B25,2013-03-12 03:40:00,
2013-03-11 20:44:00,47.3,44.3,30.36,SW,225,0.0,0.0,89,0.00,,,0.02,LWC V2.11 B50,2013-03-12 03:44:00,
2013-03-11 20:45:00,49.6,44.9,30.24,ESE,110,1.0,0.0,83,0.00,,,0.00,WeatherCatV1.15B25,2013-03-12 03:45:00,
2013-03-11 20:49:00,47.3,44.3,30.35,WSW,247,0.0,0.0,89,0.00,,,0.02,LWC V2.11 B50,2013-03-12 03:49:00,
2013-03-11 20:50:00,49.6,44.9,30.24,ESE,110,1.0,0.0,83,0.00,,,0.00,WeatherCatV1.15B25,2013-03-12 03:50:00,
2013-03-11 20:54:00,47.3,44.3,30.36,SW,225,2.2,2.2,89,0.00,,,0.02,LWC V2.11 B50,2013-03-12 03:54:00,
2013-03-11 20:55:00,49.6,44.9,30.24,ESE,110,1.0,0.0,83,0.00,,,0.00,WeatherCatV1.15B25,2013-03-12 03:55:00,
2013-03-11 20:59:00,47.1,44.1,30.36,SSW,202,1.3,1.3,89,0.00,,,0.02,LWC V2.11 B50,2013-03-12 03:59:00,
2013-03-11 21:00:00,47.1,44.1,30.36,SSW,202,0.0,1.3,89,0.00,,,0.02,LWC V2.11 B50,2013-03-12 04:00:00,
2013-03-11 21:01:00,47.1,44.1,30.36,SSW,202,0.0,0.0,89,0.00,,,0.02,LWC V2.11 B50,2013-03-12 04:01:00,
2013-03-11 21:05:00,49.6,44.9,30.24,ESE,110,1.0,0.0,83,0.00,,,0.00,WeatherCatV1.15B25,2013-03-12 04:05:00,
2013-03-11 21:06:00,47.1,44.1,30.36,SSW,202,1.6,2.9,89,0.00,,,0.02,LWC V2.11 B50,2013-03-12 04:06:00,
2013-03-11 21:10:00,49.6,44.9,30.24,ESE,110,1.0,0.0,83,0.00,,,0.00,WeatherCatV1.15B25,2013-03-12 04:10:00,
2013-03-11 21:12:00,47.1,44.1,30.36,SSW,202,0.0,0.0,89,0.00,,,0.02,LWC V2.11 B50,2013-03-12 04:12:00,
2013-03-11 21:15:00,49.6,44.9,30.24,ESE,110,1.0,0.0,83,0.00,,,0.00,WeatherCatV1.15B25,2013-03-12 04:15:00,
2013-03-11 21:17:00,47.1,44.1,30.36,SSW,202,0.0,0.0,89,0.00,,,0.02,LWC V2.11 B50,2013-03-12 04:17:00,
2013-03-11 21:20:00,49.6,44.9,30.24,ESE,110,1.0,0.0,83,0.00,,,0.00,WeatherCatV1.15B25,2013-03-12 04:20:00,
2013-03-11 21:22:00,47.1,44.4,30.36,SSW,202,0.0,0.0,90,0.00,,,0.02,LWC V2.11 B50,2013-03-12 04:22:00,
2013-03-11 21:25:00,49.6,44.9,30.24,ESE,110,1.0,0.0,83,0.00,,,0.00,WeatherCatV1.15B25,2013-03-12 04:25:00,
2013-03-11 21:27:00,47.1,44.4,30.36,South,180,0.0,0.0,90,0.00,,,0.02,LWC V2.11 B50,2013-03-12 04:27:00,
2013-03-11 21:30:00,49.6,44.9,30.24,ESE,110,1.0,0.0,83,0.00,,,0.00,WeatherCatV1.15B25,2013-03-12 04:30:00,
2013-03-11 21:32:00,47.1,44.4,30.34,South,180,1.1,3.6,90,0.00,,,0.02,LWC V2.11 B50,2013-03-12 04:32:00,
2013-03-11 21:35:00,49.6,44.9,30.24,ESE,110,1.0,0.0,83,0.00,,,0.00,WeatherCatV1.15B25,2013-03-12 04:35:00,
2013-03-11 21:36:00,47.1,44.4,30.34,East,90,0.0,7.8,90,0.00,,,0.02,LWC V2.11 B50,2013-03-12 04:36:00,
2013-03-11 21:40:00,49.6,44.9,30.24,ESE,110,1.0,0.0,83,0.00,,,0.00,WeatherCatV1.15B25,2013-03-12 04:40:00,
2013-03-11 21:41:00,46.9,44.2,30.34,SSE,157,2.7,2.7,90,0.00,,,0.02,LWC V2.11 B50,2013-03-12 04:41:00,
2013-03-11 21:45:00,49.6,44.9,30.24,ESE,110,1.0,0.0,83,0.00,,,0.00,WeatherCatV1.15B25,2013-03-12 04:45:00,
2013-03-11 21:46:00,46.9,44.2,30.34,South,180,0.0,0.0,90,0.00,,,0.02,LWC V2.11 B50,2013-03-12 04:46:00,
2013-03-11 21:50:00,49.6,44.9,30.24,ESE,110,1.0,0.0,83,0.00,,,0.00,WeatherCatV1.15B25,2013-03-12 04:50:00,
2013-03-11 21:51:00,46.9,44.2,30.34,SSE,157,0.0,1.3,90,0.00,,,0.02,LWC V2.11 B50,2013-03-12 04:51:00,
2013-03-11 21:55:00,49.6,44.9,30.24,ESE,110,1.0,0.0,83,0.00,,,0.00,WeatherCatV1.15B25,2013-03-12 04:55:00,
2013-03-11 21:56:00,46.9,44.2,30.34,SW,225,3.4,3.4,90,0.00,,,0.02,LWC V2.11 B50,2013-03-12 04:56:00,
2013-03-11 22:00:00,49.6,44.9,30.24,ESE,110,1.0,0.0,83,0.00,,,0.00,WeatherCatV1.15B25,2013-03-12 05:00:00,
2013-03-11 22:01:00,46.9,44.2,30.34,SSE,157,0.0,0.0,90,0.00,,,0.02,LWC V2.11 B50,2013-03-12 05:01:00,
2013-03-11 22:05:00,49.6,44.9,30.24,ESE,110,1.0,0.0,83,0.00,,,0.00,WeatherCatV1.15B25,2013-03-12 05:05:00,
2013-03-11 22:07:00,46.9,44.2,30.34,SSW,202,3.1,3.1,90,0.00,,,0.02,LWC V2.11 B50,2013-03-12 05:07:00,
2013-03-11 22:10:00,49.6,44.9,30.24,ESE,110,1.0,0.0,83,0.00,,,0.00,WeatherCatV1.15B25,2013-03-12 05:10:00,
2013-03-11 22:12:00,46.9,44.2,30.34,South,180,0.0,0.0,90,0.00,,,0.02,LWC V2.11 B50,2013-03-12 05:12:00,
2013-03-11 22:15:00,49.6,44.9,30.24,ESE,110,1.0,0.0,83,0.00,,,0.00,WeatherCatV1.15B25,2013-03-12 05:15:00,
2013-03-11 22:17:00,46.9,44.2,30.34,South,180,0.0,0.0,90,0.00,,,0.02,LWC V2.11 B50,2013-03-12 05:17:00,
2013-03-11 22:20:00,49.6,44.9,30.24,ESE,110,1.0,0.0,83,0.00,,,0.00,WeatherCatV1.15B25,2013-03-12 05:20:00,
2013-03-11 22:22:00,46.9,44.2,30.33,South,180,0.0,0.0,90,0.00,,,0.02,LWC V2.11 B50,2013-03-12 05:22:00,
2013-03-11 22:25:00,49.6,44.8,30.24,ESE,110,1.0,0.0,83,0.00,,,0.00,WeatherCatV1.15B25,2013-03-12 05:25:00,
2013-03-11 22:27:00,46.9,44.2,30.33,South,180,2.2,2.2,90,0.00,,,0.02,LWC V2.11 B50,2013-03-12 05:27:00,
2013-03-11 22:30:00,49.6,44.8,30.24,ESE,110,1.0,0.0,83,0.00,,,0.00,WeatherCatV1.15B25,2013-03-12 05:30:00,
2013-03-11 22:32:00,46.9,44.5,30.33,SSW,202,4.5,4.5,91,0.00,,,0.02,LWC V2.11 B50,2013-03-12 05:32:00,
2013-03-11 22:35:00,49.6,44.8,30.24,ESE,110,1.0,0.0,83,0.00,,,0.00,WeatherCatV1.15B25,2013-03-12 05:35:00,
2013-03-11 22:37:00,46.8,44.3,30.33,SSE,157,0.0,0.0,91,0.00,,,0.02,LWC V2.11 B50,2013-03-12 05:37:00,
2013-03-11 22:40:00,49.6,44.8,30.24,ESE,110,1.0,0.0,83,0.00,,,0.00,WeatherCatV1.15B25,2013-03-12 05:40:00,
2013-03-11 22:42:00,46.9,44.5,30.32,SW,225,4.5,4.5,91,0.00,,,0.02,LWC V2.11 B50,2013-03-12 05:42:00,
2013-03-11 22:45:00,49.6,44.8,30.24,ESE,110,1.0,0.0,83,0.00,,,0.00,WeatherCatV1.15B25,2013-03-12 05:45:00,
2013-03-11 22:47:00,46.8,44.3,30.32,South,180,0.0,0.0,91,0.00,,,0.02,LWC V2.11 B50,2013-03-12 05:47:00,
2013-03-11 22:50:00,49.6,44.8,30.24,ESE,110,1.0,0.0,83,0.00,,,0.00,WeatherCatV1.15B25,2013-03-12 05:50:00,
2013-03-11 22:52:00,46.8,44.3,30.32,West,270,2.2,2.2,91,0.00,,,0.02,LWC V2.11 B50,2013-03-12 05:52:00,
2013-03-11 22:55:00,49.6,44.8,30.24,ESE,110,1.0,0.0,83,0.00,,,0.00,WeatherCatV1.15B25,2013-03-12 05:55:00,
2013-03-11 22:57:00,46.9,44.5,30.32,SW,225,2.9,2.9,91,0.00,,,0.02,LWC V2.11 B50,2013-03-12 05:57:00,
2013-03-11 23:00:00,49.6,44.8,30.24,ESE,110,1.0,0.0,83,0.00,,,0.00,WeatherCatV1.15B25,2013-03-12 06:00:00,
2013-03-11 23:02:00,46.9,44.5,30.32,SW,225,0.0,2.7,91,0.00,,,0.02,LWC V2.11 B50,2013-03-12 06:02:00,
2013-03-11 23:05:00,49.6,44.8,30.24,ESE,110,1.0,0.0,83,0.00,,,0.00,WeatherCatV1.15B25,2013-03-12 06:05:00,
2013-03-11 23:07:00,46.9,44.5,30.31,WSW,247,0.0,0.0,91,0.00,,,0.02,LWC V2.11 B50,2013-03-12 06:07:00,
2013-03-11 23:10:00,49.6,44.8,30.24,ESE,110,1.0,0.0,83,0.00,,,0.00,WeatherCatV1.15B25,2013-03-12 06:10:00,
2013-03-11 23:12:00,46.9,44.5,30.31,SW,225,3.6,3.6,91,0.00,,,0.02,LWC V2.11 B50,2013-03-12 06:12:00,
2013-03-11 23:15:00,49.6,44.8,30.24,ESE,110,1.0,0.0,83,0.00,,,0.00,WeatherCatV1.15B25,2013-03-12 06:15:00,
2013-03-11 23:17:00,46.9,44.5,30.31,WSW,247,0.0,0.0,91,0.00,,,0.02,LWC V2.11 B50,2013-03-12 06:17:00,
2013-03-11 23:20:00,49.6,44.8,30.24,ESE,110,1.0,0.0,83,0.00,,,0.00,WeatherCatV1.15B25,2013-03-12 06:20:00,
2013-03-11 23:23:00,46.9,44.5,30.30,SSW,202,0.0,0.0,91,0.00,,,0.02,LWC V2.11 B50,2013-03-12 06:23:00,
2013-03-11 23:25:00,49.6,44.8,30.24,ESE,110,1.0,0.0,83,0.00,,,0.00,WeatherCatV1.15B25,2013-03-12 06:25:00,
2013-03-11 23:28:00,46.9,44.5,30.30,SSE,157,0.0,0.0,91,0.00,,,0.02,LWC V2.11 B50,2013-03-12 06:28:00,
2013-03-11 23:30:00,49.6,44.8,30.24,ESE,110,1.0,0.0,83,0.00,,,0.00,WeatherCatV1.15B25,2013-03-12 06:30:00,
2013-03-11 23:33:00,46.9,44.5,30.29,SSW,202,1.1,1.1,91,0.00,,,0.02,LWC V2.11 B50,2013-03-12 06:33:00,
2013-03-11 23:35:00,49.6,44.8,30.24,ESE,110,1.0,0.0,83,0.00,,,0.00,WeatherCatV1.15B25,2013-03-12 06:35:00,
2013-03-11 23:38:00,46.9,44.5,30.30,SSW,202,3.4,3.4,91,0.00,,,0.02,LWC V2.11 B50,2013-03-12 06:38:00,
2013-03-11 23:40:00,49.6,44.8,30.24,ESE,110,1.0,0.0,83,0.00,,,0.00,WeatherCatV1.15B25,2013-03-12 06:40:00,
2013-03-11 23:43:00,46.9,44.5,30.29,SW,225,0.0,1.6,91,0.00,,,0.02,LWC V2.11 B50,2013-03-12 06:43:00,
2013-03-11 23:45:00,49.6,44.8,30.24,ESE,110,1.0,0.0,83,0.00,,,0.00,WeatherCatV1.15B25,2013-03-12 06:45:00,
2013-03-11 23:48:00,47.1,44.7,30.29,SSW,202,0.0,0.0,91,0.00,,,0.02,LWC V2.11 B50,2013-03-12 06:48:00,
2013-03-11 23:50:00,49.6,44.8,30.24,ESE,110,1.0,0.0,83,0.00,,,0.00,WeatherCatV1.15B25,2013-03-12 06:50:00,
2013-03-11 23:53:00,47.1,45.0,30.29,SSW,202,4.2,4.2,92,0.00,,,0.02,LWC V2.11 B50,2013-03-12 06:53:00,
2013-03-11 23:55:00,49.6,44.8,30.24,ESE,110,1.0,0.0,83,0.00,,,0.00,WeatherCatV1.15B25,2013-03-12 06:55:00,
2013-03-11 23:58:00,47.1,45.0,30.29,SSW,202,2.5,2.5,92,0.00,,,0.02,LWC V2.11 B50,2013-03-12 06:58:00,